GW1401 Weather Reports


time (UTC)temp
C
wind
direction
speed
KPH
gust
KPH
rain 1hr
cm
rain 24hr
cm
rain mn
cm
humidity
%
barometer
mb
20260906100330 22 128 0.0 0.0 0.00 0.00 0.00 98 1017.0
20260906095825 22 8 1.6 1.6 0.00 0.00 0.00 98 1016.8
20260906095321 22 122 0.0 0.0 0.00 0.00 0.00 98 1016.9
20260906094820 22 129 0.0 1.6 0.00 0.00 0.00 98 1016.8
20260906094315 22 120 0.0 3.2 0.00 0.00 0.00 98 1016.4
20260906093812 22 127 0.0 0.0 0.00 0.00 0.00 97 1016.6
20260906093307 22 121 0.0 0.0 0.00 0.00 0.00 97 1016.5
20260906092802 22 125 0.0 1.6 0.00 0.00 0.00 97 1016.4
20260906092305 22 113 0.0 3.2 0.00 0.00 0.00 97 1016.5
20260906091758 22 124 0.0 0.0 0.00 0.00 0.00 97 1016.5
20260906091254 22 123 0.0 0.0 0.00 0.00 0.00 97 1016.4
20260906090750 22 129 0.0 0.0 0.00 0.00 0.00 97 1016.4
20260906090248 22 135 0.0 0.0 0.00 0.00 0.00 96 1016.2
20260906085748 22 130 0.0 0.0 0.00 0.00 0.00 96 1016.3
20260906085242 23 107 0.0 0.0 0.00 0.00 0.00 95 1016.2
20260906084736 23 133 0.0 0.0 0.00 0.00 0.00 95 1016.4
20260906084231 23 128 0.0 0.0 0.00 0.00 0.00 94 1016.4
20260906083726 23 124 0.0 0.0 0.00 0.00 0.00 94 1016.3
20260906083221 23 124 0.0 0.0 0.00 0.00 0.00 94 1016.5
20260906082716 23 126 0.0 0.0 0.00 0.00 0.00 94 1016.4
20260906082211 23 140 0.0 0.0 0.00 0.00 0.00 94 1016.3
20260906081707 23 123 0.0 0.0 0.00 0.00 0.00 94 1016.3
20260906081202 23 121 0.0 0.0 0.00 0.00 0.00 94 1016.5
20260906080659 23 115 0.0 0.0 0.00 0.00 0.00 95 1016.5
20260906080154 23 115 0.0 1.6 0.00 0.00 0.00 95 1016.4
20260906075654 23 113 0.0 0.0 0.00 0.00 0.00 96 1016.5
20260906075143 23 111 0.0 1.6 0.00 0.00 0.00 97 1016.4
20260906074638 23 136 1.6 1.6 0.00 0.00 0.00 98 1016.4
20260906074137 23 12 1.6 3.2 0.00 0.00 0.00 98 1016.3
20260906073632 23 116 0.0 0.0 0.00 0.00 0.00 99 1016.3
20260906073128 23 123 0.0 0.0 0.00 0.00 0.00 99 1016.4
20260906072623 23 125 0.0 0.0 0.00 0.00 0.00 99 1016.2
20260906072119 23 109 0.0 0.0 0.00 0.00 0.00 99 1016.1
20260906071615 23 118 0.0 0.0 0.00 0.00 0.00 98 1016.1
20260906071109 23 120 0.0 0.0 0.00 0.00 0.00 98 1016.4
20260906070606 23 108 0.0 0.0 0.00 0.00 0.00 98 1016.2
20260906070101 23 127 0.0 1.6 0.00 0.00 0.00 98 1016.5
20260906065601 23 108 0.0 1.6 0.00 0.00 0.00 98 1016.4
20260906065056 23 118 0.0 0.0 0.00 0.00 0.00 98 1016.5
20260906064552 23 94 0.0 0.0 0.00 0.00 0.00 97 1016.4
20260906064046 23 114 0.0 0.0 0.00 0.00 0.00 97 1016.4
20260906063542 23 116 0.0 0.0 0.00 0.00 0.00 97 1016.5
20260906063038 23 114 0.0 1.6 0.00 0.00 0.00 97 1016.5
20260906062533 23 125 0.0 0.0 0.00 0.00 0.00 97 1016.5
20260906062027 23 104 0.0 1.6 0.00 0.00 0.00 96 1016.4
20260906061523 23 118 0.0 0.0 0.00 0.00 0.00 96 1016.5
20260906061022 24 112 0.0 0.0 0.00 0.00 0.00 95 1016.6
20260906060519 24 122 0.0 0.0 0.00 0.00 0.00 95 1016.5
20260906060016 24 113 0.0 1.6 0.00 0.00 0.00 94 1016.5
20260906055511 24 114 0.0 0.0 0.00 0.00 0.00 94 1016.4
20260906055006 25 127 0.0 0.0 0.00 0.00 0.00 94 1016.4
20260906054501 25 106 0.0 0.0 0.00 0.00 0.00 94 1016.4
20260906053956 25 46 3.2 8.0 0.00 0.00 0.00 94 1016.6
20260906053453 25 104 0.0 0.0 0.00 0.00 0.00 95 1016.5
20260906052948 24 97 1.6 3.2 0.00 0.00 0.00 95 1016.4
20260906052444 24 193 0.0 0.0 0.00 0.00 0.00 96 1016.5
20260906051941 24 118 0.0 0.0 0.00 0.00 0.00 96 1016.3
20260906051436 25 114 0.0 0.0 0.00 0.00 0.00 95 1016.2
20260906050932 25 115 0.0 0.0 0.00 0.00 0.00 95 1016.2
20260906050431 25 115 0.0 0.0 0.00 0.00 0.00 95 1016.2
20260906045931 25 110 0.0 0.0 0.00 0.00 0.00 95 1016.0
20260906045429 25 110 0.0 0.0 0.00 0.00 0.00 94 1016.1
20260906044925 25 130 0.0 0.0 0.00 0.00 0.00 94 1016.0
20260906044420 25 126 0.0 0.0 0.00 0.00 0.00 94 1016.0
20260906043916 25 115 0.0 0.0 0.00 0.00 0.00 93 1016.0
20260906043412 25 122 0.0 0.0 0.00 0.00 0.00 93 1016.0
20260906042907 25 130 0.0 1.6 0.00 0.00 0.00 93 1016.1
20260906042406 25 123 0.0 0.0 0.00 0.00 0.00 92 1016.1
20260906041901 25 138 0.0 0.0 0.00 0.00 0.00 92 1015.9
20260906041357 25 116 0.0 3.2 0.00 0.00 0.00 92 1016.0
20260906040857 25 148 0.0 0.0 0.00 0.00 0.00 91 1015.8
20260906040352 25 112 0.0 1.6 0.00 0.00 0.00 91 1015.8
20260906035848 25 119 0.0 1.6 0.00 0.00 0.00 91 1015.5
20260906035343 26 99 1.6 3.2 0.00 0.00 0.00 90 1015.5
20260906034838 25 139 1.6 3.2 0.00 0.00 0.00 91 1015.5
20260906034333 25 113 0.0 0.0 0.00 0.00 0.00 93 1015.8
20260906033829 25 116 0.0 0.0 0.00 0.00 0.00 92 1015.2
20260906033328 25 116 0.0 0.0 0.00 0.00 0.00 92 1015.3
20260906032825 25 116 0.0 0.0 0.00 0.00 0.00 92 1015.3
20260906032320 25 116 0.0 0.0 0.00 0.00 0.00 92 1015.4
20260906031815 26 116 0.0 0.0 0.00 0.00 0.00 91 1015.4
20260906031311 26 116 0.0 0.0 0.00 0.00 0.00 91 1015.4
20260906030810 26 116 0.0 0.0 0.00 0.00 0.00 91 1015.5
20260906030305 26 116 0.0 0.0 0.00 0.00 0.00 90 1015.4
20260906025805 26 116 0.0 0.0 0.00 0.00 0.00 90 1015.6
20260906025259 26 104 0.0 0.0 0.00 0.00 0.00 89 1015.6
20260906024758 26 118 0.0 0.0 0.00 0.00 0.00 89 1015.5
20260906024252 26 118 0.0 0.0 0.00 0.00 0.00 88 1015.5
20260906023748 26 118 0.0 0.0 0.00 0.00 0.00 87 1015.4
20260906023242 27 127 0.0 0.0 0.00 0.00 0.00 86 1015.4
20260906022738 26 131 0.0 0.0 0.00 0.00 0.00 87 1015.5
20260906022233 26 116 0.0 0.0 0.00 0.00 0.00 86 1015.4
20260906021729 27 116 0.0 0.0 0.00 0.00 0.00 85 1015.4
20260906021227 27 115 0.0 0.0 0.00 0.00 0.00 84 1015.1
20260906020722 27 115 0.0 0.0 0.00 0.00 0.00 83 1015.3
20260906020217 27 119 0.0 0.0 0.00 0.00 0.00 83 1015.2
20260906015712 27 120 0.0 0.0 0.00 0.00 0.00 82 1015.2
20260906015210 27 124 0.0 0.0 0.00 0.00 0.00 82 1015.1
20260906014710 27 120 0.0 0.0 0.00 0.00 0.00 84 1015.2
20260906014206 27 115 0.0 0.0 0.00 0.00 0.00 85 1014.9
20260906013703 27 108 0.0 0.0 0.00 0.00 0.00 84 1014.6
20260906013203 27 120 0.0 0.0 0.00 0.00 0.00 84 1014.8
20260906012658 27 115 0.0 0.0 0.00 0.00 0.00 83 1014.7
20260906012158 27 115 0.0 0.0 0.00 0.00 0.00 83 1014.7
20260906011654 27 115 0.0 0.0 0.00 0.00 0.00 83 1014.5
20260906011148 27 114 0.0 1.6 0.00 0.00 0.00 82 1014.5
20260906010643 28 111 0.0 0.0 0.00 0.00 0.00 81 1014.4
20260906010140 28 120 0.0 0.0 0.00 0.00 0.00 79 1014.5
20260906005639 28 121 0.0 0.0 0.00 0.00 0.00 78 1014.4
20260906005138 28 121 0.0 0.0 0.00 0.00 0.00 78 1014.2
20260906004638 29 121 0.0 0.0 0.00 0.00 0.00 78 1014.4
20260906004133 29 121 0.0 0.0 0.00 0.00 0.00 78 1014.5
20260906003628 29 121 0.0 0.0 0.00 0.00 0.00 78 1014.2
20260906003124 30 121 0.0 0.0 0.00 0.00 0.00 78 1014.5
20260906002619 30 121 0.0 0.0 0.00 0.00 0.00 76 1014.5
20260906002113 30 121 0.0 0.0 0.00 0.00 0.00 75 1014.5
20260906001608 30 121 0.0 0.0 0.00 0.00 0.00 75 1014.5
20260906001103 30 121 0.0 0.0 0.00 0.00 0.00 73 1014.5
20260906000559 31 121 0.0 0.0 0.00 0.00 0.00 72 1014.7
20260906000054 31 121 0.0 0.0 0.00 0.00 0.00 71 1014.7
20260905235553 31 121 0.0 0.0 0.00 0.00 0.00 70 1014.8
20260905235048 31 121 0.0 0.0 0.00 0.00 0.00 69 1014.9
20260905234543 31 123 0.0 0.0 0.00 0.00 0.00 68 1014.8
20260905234038 31 123 0.0 0.0 0.00 0.00 0.00 67 1015.0
20260905233533 31 111 0.0 0.0 0.00 0.00 0.00 68 1015.0
20260905233033 31 111 0.0 0.0 0.00 0.00 0.00 67 1014.8
20260905232528 32 110 0.0 0.0 0.00 0.00 0.00 66 1014.9
20260905232024 32 113 0.0 0.0 0.00 0.00 0.00 64 1015.0
20260905231519 32 113 0.0 0.0 0.00 0.00 0.00 63 1014.9
20260905231015 33 113 0.0 0.0 0.00 0.00 0.00 63 1014.8
20260905230514 33 113 0.0 0.0 0.00 0.00 0.00 62 1014.7
20260905230013 33 113 0.0 0.0 0.00 0.00 0.00 61 1014.6
20260905225508 33 113 0.0 0.0 0.00 0.00 0.00 59 1014.6
20260905225003 33 100 1.6 1.6 0.00 0.00 0.00 56 1014.5
20260905224458 34 125 0.0 1.6 0.00 0.00 0.00 56 1014.4
20260905223957 34 69 0.0 1.6 0.00 0.00 0.00 55 1014.5
20260905223455 35 108 0.0 4.8 0.00 0.00 0.00 52 1014.5
20260905222950 35 104 1.6 3.2 0.00 0.00 0.00 52 1014.3
20260905222450 36 118 0.0 3.2 0.00 0.00 0.00 50 1014.2
20260905221945 36 174 0.0 1.6 0.00 0.00 0.00 47 1014.3
20260905221441 36 205 1.6 8.0 0.00 0.00 0.00 48 1014.4
20260905220938 36 120 1.6 4.8 0.00 0.00 0.00 47 1014.4
20260905220433 37 29 1.6 4.8 0.00 0.00 0.00 46 1014.2
20260905215932 37 147 1.6 1.6 0.00 0.00 0.00 46 1014.3
20260905215428 37 259 3.2 4.8 0.00 0.00 0.00 46 1014.4
20260905214924 37 19 0.0 4.8 0.00 0.00 0.00 46 1014.4
20260905214420 37 261 1.6 4.8 0.00 0.00 0.00 46 1014.5
20260905213920 37 353 8.0 9.7 0.00 0.00 0.00 45 1014.5
20260905213416 37 242 4.8 11.3 0.00 0.00 0.00 46 1014.6
20260905212911 37 263 4.8 9.7 0.00 0.00 0.00 45 1014.7
20260905212406 37 156 1.6 8.0 0.00 0.00 0.00 45 1014.5
20260905211900 36 192 1.6 4.8 0.00 0.00 0.00 46 1014.5
20260905211355 37 163 1.6 8.0 0.00 0.00 0.00 45 1014.5
20260905210851 37 253 4.8 8.0 0.00 0.00 0.00 45 1014.6
20260905210351 37 276 3.2 9.7 0.00 0.00 0.00 45 1014.7
20260905205850 37 21 3.2 9.7 0.00 0.00 0.00 45 1014.6
20260905205345 37 172 3.2 9.7 0.00 0.00 0.00 44 1014.7
20260905204844 37 331 4.8 9.7 0.00 0.00 0.00 45 1014.7
20260905204341 37 97 1.6 9.7 0.00 0.00 0.00 44 1014.7
20260905203839 38 283 3.2 4.8 0.00 0.00 0.00 44 1014.8
20260905203335 38 21 3.2 3.2 0.00 0.00 0.00 43 1015.0
20260905202831 38 124 0.0 0.0 0.00 0.00 0.00 43 1014.9
20260905202325 38 38 3.2 4.8 0.00 0.00 0.00 45 1014.8
20260905201821 36 141 1.6 1.6 0.00 0.00 0.00 47 1015.1
20260905201316 37 72 3.2 4.8 0.00 0.00 0.00 47 1015.1
20260905200811 37 170 1.6 4.8 0.00 0.00 0.00 47 1015.1
20260905200307 37 138 3.2 4.8 0.00 0.00 0.00 47 1015.1
20260905195804 37 170 3.2 4.8 0.00 0.00 0.00 46 1015.3
20260905195259 37 127 0.0 4.8 0.00 0.00 0.00 46 1015.4
20260905194755 37 12 6.4 11.3 0.00 0.00 0.00 46 1015.5
20260905194255 37 115 1.6 4.8 0.00 0.00 0.00 47 1015.5
20260905193754 36 318 3.2 3.2 0.00 0.00 0.00 47 1015.8
20260905193249 36 97 1.6 4.8 0.00 0.00 0.00 47 1015.8
20260905192744 36 140 3.2 3.2 0.00 0.00 0.00 48 1015.8
20260905192241 36 184 4.8 8.0 0.00 0.00 0.00 47 1015.9
20260905191740 36 153 0.0 1.6 0.00 0.00 0.00 48 1016.1
20260905191239 35 162 4.8 4.8 0.00 0.00 0.00 49 1016.2
20260905190737 35 151 3.2 4.8 0.00 0.00 0.00 49 1016.2
20260905190236 36 167 1.6 4.8 0.00 0.00 0.00 48 1016.2
20260905185736 36 291 1.6 3.2 0.00 0.00 0.00 48 1016.6
20260905185231 35 149 3.2 8.0 0.00 0.00 0.00 49 1016.5
20260905184725 36 140 0.0 1.6 0.00 0.00 0.00 47 1016.6
20260905184224 35 134 1.6 4.8 0.00 0.00 0.00 47 1016.6
20260905183724 35 140 1.6 3.2 0.00 0.00 0.00 49 1016.7
20260905183219 35 338 1.6 8.0 0.00 0.00 0.00 49 1016.8
20260905182719 35 106 0.0 8.0 0.00 0.00 0.00 49 1016.7
20260905182218 35 157 1.6 8.0 0.00 0.00 0.00 48 1016.9
20260905181714 35 120 0.0 4.8 0.00 0.00 0.00 47 1017.0
20260905181213 35 163 1.6 4.8 0.00 0.00 0.00 49 1017.2
20260905180707 35 188 4.8 8.0 0.00 0.00 0.00 48 1017.2
20260905180203 35 165 3.2 4.8 0.00 0.00 0.00 51 1017.2
20260905175702 35 263 4.8 12.9 0.00 0.00 0.00 51 1017.2
20260905175157 34 126 3.2 3.2 0.00 0.00 0.00 50 1017.2
20260905174653 34 150 4.8 9.7 0.00 0.00 0.00 51 1017.2
20260905174148 34 129 4.8 8.0 0.00 0.00 0.00 52 1017.3
20260905173644 34 175 1.6 4.8 0.00 0.00 0.00 50 1017.3
20260905173140 34 275 3.2 8.0 0.00 0.00 0.00 51 1017.4
20260905172639 33 130 4.8 4.8 0.00 0.00 0.00 53 1017.4
20260905172133 33 170 8.0 9.7 0.00 0.00 0.00 53 1017.5
20260905171630 34 201 4.8 4.8 0.00 0.00 0.00 51 1017.5
20260905171125 33 169 1.6 4.8 0.00 0.00 0.00 54 1017.4
20260905170622 33 127 6.4 9.7 0.00 0.00 0.00 55 1017.5
20260905170117 33 329 4.8 9.7 0.00 0.00 0.00 56 1017.5
20260905165611 33 202 3.2 9.7 0.00 0.00 0.00 57 1017.6
20260905165107 33 149 3.2 9.7 0.00 0.00 0.00 57 1017.8
20260905164601 33 145 1.6 9.7 0.00 0.00 0.00 55 1018.0
20260905164055 32 205 1.6 4.8 0.00 0.00 0.00 57 1018.1
20260905163552 33 106 3.2 4.8 0.00 0.00 0.00 56 1018.0
20260905163048 32 136 0.0 3.2 0.00 0.00 0.00 57 1018.0
20260905162544 32 253 4.8 11.3 0.00 0.00 0.00 56 1018.2
20260905162043 32 186 3.2 9.7 0.00 0.00 0.00 57 1018.5
20260905161543 32 224 3.2 4.8 0.00 0.00 0.00 54 1018.5
20260905161041 33 139 1.6 3.2 0.00 0.00 0.00 55 1018.4
20260905160539 32 204 1.6 4.8 0.00 0.00 0.00 56 1018.3
20260905160034 31 286 4.8 4.8 0.00 0.00 0.00 60 1018.2
20260905155534 31 161 4.8 8.0 0.00 0.00 0.00 60 1018.3
20260905155033 32 187 1.6 9.7 0.00 0.00 0.00 59 1018.2
20260905154528 31 145 1.6 9.7 0.00 0.00 0.00 58 1018.2
20260905154024 31 125 6.4 8.0 0.00 0.00 0.00 57 1018.2
20260905153520 31 166 4.8 9.7 0.00 0.00 0.00 57 1018.3
20260905153019 31 123 4.8 4.8 0.00 0.00 0.00 57 1018.5
20260905152519 31 142 1.6 4.8 0.00 0.00 0.00 58 1018.6
20260905152015 31 160 3.2 8.0 0.00 0.00 0.00 59 1018.5
20260905151510 31 157 1.6 9.7 0.00 0.00 0.00 58 1018.7
20260905151005 30 73 1.6 3.2 0.00 0.00 0.00 58 1018.6
20260905150500 31 199 6.4 9.7 0.00 0.00 0.00 57 1018.5
20260905145956 31 149 1.6 4.8 0.00 0.00 0.00 59 1018.4
20260905145451 30 134 0.0 3.2 0.00 0.00 0.00 61 1018.7
20260905144950 30 159 1.6 4.8 0.00 0.00 0.00 59 1018.7
20260905144446 30 111 1.6 4.8 0.00 0.00 0.00 61 1018.8
20260905143945 30 127 0.0 3.2 0.00 0.00 0.00 61 1018.8
20260905143444 30 170 1.6 1.6 0.00 0.00 0.00 62 1018.9
20260905142939 29 128 0.0 1.6 0.00 0.00 0.00 63 1018.8
20260905142438 29 182 1.6 8.0 0.00 0.00 0.00 64 1018.9
20260905141933 29 96 0.0 4.8 0.00 0.00 0.00 68 1019.2
20260905141428 28 125 1.6 8.0 0.00 0.00 0.00 68 1019.2
20260905140924 28 112 1.6 3.2 0.00 0.00 0.00 70 1019.2
20260905140420 28 169 3.2 4.8 0.00 0.00 0.00 70 1019.3
20260905135918 27 124 3.2 4.8 0.00 0.00 0.00 72 1019.1
20260905135414 27 132 3.2 3.2 0.00 0.00 0.00 74 1019.4
20260905134909 27 159 1.6 8.0 0.00 0.00 0.00 77 1019.3
20260905134408 26 136 0.0 0.0 0.00 0.00 0.00 80 1019.5
20260905133903 25 131 1.6 3.2 0.00 0.00 0.00 83 1019.3
20260905133358 25 252 3.2 3.2 0.00 0.00 0.00 83 1019.6
20260905132857 25 158 0.0 4.8 0.00 0.00 0.00 83 1019.5
20260905132352 26 124 3.2 3.2 0.00 0.00 0.00 83 1019.8
20260905131846 26 160 1.6 3.2 0.00 0.00 0.00 82 1019.7
20260905131342 27 179 1.6 3.2 0.00 0.00 0.00 80 1020.0
20260905130837 26 178 3.2 8.0 0.00 0.00 0.00 79 1020.1
20260905130336 26 205 3.2 3.2 0.00 0.00 0.00 81 1020.0
20260905125832 26 137 1.6 8.0 0.00 0.00 0.00 82 1019.7
20260905125326 26 231 3.2 4.8 0.00 0.00 0.00 84 1019.5
20260905124823 25 151 3.2 8.0 0.00 0.00 0.00 85 1019.4
20260905124319 25 126 0.0 1.6 0.00 0.00 0.00 92 1019.7
20260905123813 24 127 1.6 1.6 0.00 0.00 0.00 96 1019.7
20260905123310 24 120 0.0 3.2 0.00 0.00 0.00 97 1019.9
20260905122809 23 109 1.6 3.2 0.00 0.00 0.00 99 1019.5
20260905122309 23 66 0.0 0.0 0.00 0.00 0.00 99 1018.6
20260905121805 23 123 0.0 0.0 0.00 0.00 0.00 99 1018.5
20260905121301 23 120 0.0 0.0 0.00 0.00 0.00 99 1018.1
20260905120759 23 126 0.0 0.0 0.00 0.00 0.00 99 1018.1
20260905120300 23 124 0.0 0.0 0.00 0.00 0.00 99 1017.9
20260905115754 23 149 0.0 0.0 0.00 0.00 0.00 99 1018.0
20260905115249 23 115 0.0 0.0 0.00 0.00 0.00 99 1018.3
20260905114748 23 127 0.0 0.0 0.00 0.00 0.00 99 1018.3
20260905114247 23 116 0.0 0.0 0.00 0.00 0.00 99 1018.3
20260905113746 23 101 0.0 0.0 0.00 0.00 0.00 98 1018.1
20260905113243 23 120 0.0 0.0 0.00 0.00 0.00 98 1018.1
20260905112737 23 127 0.0 0.0 0.00 0.00 0.00 98 1018.0
20260905112232 23 120 0.0 0.0 0.00 0.00 0.00 98 1017.7
20260905111727 23 121 0.0 1.6 0.00 0.00 0.00 98 1017.7
20260905111221 23 121 0.0 3.2 0.00 0.00 0.00 97 1018.2
20260905110720 23 126 0.0 0.0 0.00 0.00 0.00 97 1017.9
20260905110215 23 109 0.0 0.0 0.00 0.00 0.00 97 1017.6
20260905105710 23 112 0.0 0.0 0.00 0.00 0.00 96 1017.6
20260905105209 23 115 0.0 0.0 0.00 0.00 0.00 96 1017.5
20260905104704 23 118 0.0 0.0 0.00 0.00 0.00 96 1017.3
20260905104200 23 123 0.0 0.0 0.00 0.00 0.00 96 1017.1
20260905103655 23 131 0.0 0.0 0.00 0.00 0.00 96 1017.1
20260905103151 23 128 0.0 3.2 0.00 0.00 0.00 96 1017.3
20260905102646 23 132 0.0 0.0 0.00 0.00 0.00 96 1017.2
20260905102143 23 117 0.0 0.0 0.00 0.00 0.00 95 1017.0
20260905101641 23 107 0.0 0.0 0.00 0.00 0.00 95 1016.9
20260905101140 23 124 0.0 0.0 0.00 0.00 0.00 94 1017.1
20260905100636 23 122 0.0 0.0 0.00 0.00 0.00 94 1016.9